Regional Weather Roundup
Issued by NWS

Home | Current Version | Previous Version | Graphics & Text | Print | Product List | Glossary On
Versions: 1 2 3 4 5 6 7 8 9 10 11 12 13 14 15 16 17 18 19 20 21 22 23 24 25 26 27 28 29 30 31 32 33 34 35 36 37 38 39 40 41 42 43 44 45 46 47 48 49 50
000
ASUS43 KDMX 181401
RWRIA

WEATHER ROUNDUP FOR IOWA
NATIONAL WEATHER SERVICE DES MOINES IA
800 AM CST SAT NOV 18 2017

NOTE: "FAIR" INDICATES FEW OR NO CLOUDS BELOW 12,000 FEET WITH NO
SIGNIFICANT WEATHER AND/OR OBSTRUCTIONS TO VISIBILITY.

* - THESE STATIONS ARE NOT NWS STATIONS...THUS NOT UNDER NWS
QUALITY CONTROL.  THEY ALSO DO NOT REPORT WEATHER SUCH
AS PRECIPITATION OR FOG.

IAZ001>003-012>014-020>022-031>034-043>046-181500-
   NORTHWEST IOWA

CITY           SKY/WX    TMP DP  RH WIND       PRES   REMARKS
CARROLL *      CLOUDY    34  32  93 N23       29.77R WCI  22
CHEROKEE *     CLOUDY    31  28  87 N12G17    29.85R WCI  22
DENISON *      CLOUDY    34  30  86 NW12G17   29.84R WCI  25
LE MARS *      PTCLDY    32  28  86 NW9       29.88R WCI  24
ORANGE CITY *  PTCLDY    30  28  93 NW8       29.87R WCI  23
SHELDON *      MOCLDY    28  25  86 N10       29.84R WCI  19
SIOUX CITY     MOCLDY    34  28  79 NW17      29.89R WCI  23
SPENCER        MOCLDY    29  23  78 NW12      29.83R WCI  19
STORM LAKE *   CLOUDY    32  28  86 NW20      29.81R WCI  20
$$

IAZ055>058-069>071-079>083-090>094-181500-
   SOUTHWEST IOWA

CITY           SKY/WX    TMP DP  RH WIND       PRES   REMARKS
ATLANTIC *     CLOUDY    37  36  93 N20G28    29.78R WCI  27
AUDUBON *      CLOUDY    36  32  87 NW14G26   29.78R WCI  27
CLARINDA *     CLOUDY    39  39 100 N17G25      N/A  WCI  30
COUNCIL BLFS * MOCLDY    36  36 100 NW20G29   29.83R WCI  25
CRESTON *      CLOUDY    37  37 100 N17G25    29.71R FOG     WCI  28
HARLAN  *      CLOUDY    36  36 100 NW24      29.84R WCI  24
LAMONI         LGT RAIN  39  38  96 N16G28    29.66R WCI  30
RED OAK *      CLOUDY    39  37  93 N17G24    29.79R WCI  30
SHENANDOAH *   CLOUDY    39  36  87 NW16G30   29.81R WCI  30
$$

IAZ047>049-059>061-072>074-084-181500-
   CENTRAL IOWA

CITY           SKY/WX    TMP DP  RH WIND       PRES   REMARKS
AMES           CLOUDY    37  37 100 N23G32    29.70R FOG     WCI  26
ANKENY *       CLOUDY    37  36  93 N15       29.69S FOG     WCI  28
BOONE *        CLOUDY    36  34  93 N26G35    29.70R FOG     WCI  23
CHARITON *     LGT RAIN  39  37  93 N17G29    29.64R WCI  30
DES MOINES     CLOUDY    39  36  89 N16G22    29.68R FOG     WCI  30
GRINNELL*      LGT RAIN  37  36  94 N17G26    29.64R WCI  28
KNOXVILLE *    CLOUDY    39  37  93 N21G28    29.62R WCI  29
MARSHALLTOWN   CLOUDY    37  36  96 N24       29.66R FOG     WCI  26
NEWTON *       CLOUDY    37  37 100 N21       29.65R FOG     WCI  27
PELLA *        LGT RAIN  38  37  94 N16G25    29.66R WCI  29
PERRY *        CLOUDY    37  36  96 N18G28    29.72R WCI  27
$$

IAZ004>006-015-016-023>025-035-036-181500-
   NORTH CENTRAL IOWA

CITY           SKY/WX    TMP DP  RH WIND       PRES   REMARKS
ALGONA *       CLOUDY    32  32 100 N16G24    29.78S WCI  21
CLARION *      CLOUDY    34  34 100 N16G25    29.74F WCI  23
ESTHERVILLE    CLOUDY    27  24  89 NW16      29.81R WCI  15
FORT DODGE *   CLOUDY    33  30  88 N13G22    29.76S WCI  24
MASON CITY     CLOUDY    35  32  88 N22G29    29.75R FOG     WCI  23
FOREST CITY *  CLOUDY    34  34 100 N15G23    29.75S WCI  24
WEBSTER CITY * CLOUDY    36  34  93 N20G29    29.71F FOG     WCI  25
IOWA FALLS *   CLOUDY    37  35  94 NW20      29.71R FOG     WCI  26
$$

IAZ007>011-017>019-026>030-037>042-050>054-066-181500-
   NORTHEAST IOWA

CITY           SKY/WX    TMP DP  RH WIND       PRES   REMARKS
CEDAR RAPIDS   LGT RAIN  38  37  97 N20G28    29.58F WCI  28
CHARLES CITY * CLOUDY    36  36 100 NW14G22   29.71R FOG     WCI  27
CLINTON *      LGT RAIN  39  37  92 N17       29.54R WCI  30
DECORAH *      CLOUDY    36  36 100 N14       29.66R FOG     WCI  27
DUBUQUE        MIX PCPN  35  34  96 N14       29.58R WCI  26
MONTICELLO *   LGT RAIN  37  36  93 N12G22    29.60S WCI  30
OELWEIN *      CLOUDY    37  36  93 N14G24    29.65S WCI  29
WATERLOO       CLOUDY    37  35  92 N17       29.66S WCI  27
$$

IAZ064-065-067-068-078-181500-
   EAST CENTRAL IOWA

CITY           SKY/WX    TMP DP  RH WIND       PRES   REMARKS
DAVENPORT      LGT RAIN  39  37  92 N22G31    29.55R WCI  29
IOWA CITY      LGT RAIN  41  37  86 N18G28    29.58F
MT. PLEASANT * CLOUDY    39  39  99 N21G30    29.55R WCI  29
MUSCATINE *    CLOUDY    41  37  87 N22G30    29.53F
QUAD CITIES    LGT RAIN  41  37  86 N7G20     29.53R FOG
$$

IAZ062-063-075>077-085>089-095>099-181500-
   SOUTHEAST IOWA

CITY           SKY/WX    TMP DP  RH WIND       PRES   REMARKS
BURLINGTON     CLOUDY    41  40  96 N21G32    29.50R
FAIRFIELD *    CLOUDY    39  37  93 N24       29.56R FOG     WCI  28
FORT MADISON * CLOUDY    39  39 100 N18       29.53R WCI  30
KEOKUK *       HVY RAIN  41  41 100 N13G20    29.53R
OSKALOOSA *    LGT RAIN  38  37  95 N23       29.61R WCI  27
OTTUMWA        LGT RAIN  39  37  92 N20       29.60R WCI  29
WASHINGTON *   MIX PCPN  39  39 100 N21G28    29.58R WCI  29
$$

ABBREVIATIONS USED IN REMARKS
   TC - TEMPERATURES IN CELSIUS
  WCI - WIND CHILL INDEX
   HX - HEAT INDEX
  VSB - VISIBILITY
$$





USA.gov is the U.S. government's official web portal to all federal, state and local government web resources and services.